This demonstration page uses our WeatherBlox Daily Observations layout. Learn more.

Left ArrowRight Arrow

Hourly Observations for June 26, 2022

Temp ( °F °C ) Dew Point ( °F °C ) Humidity (%) Winds ( mph kmh ) Pressure ( in mb ) Visibility ( mi km ) Precip ( " mm )
12:54 am 00:54 Clear 66 18.9 49 9.4 54 54 NNW 9 15 30.22 1024 10 16 0.00 0.00
1:54 am 01:54 Clear 62 16.7 48 8.9 60 60 NNW 3 6 30.22 1024 10 16 0.00 0.00
2:54 am 02:54 Clear 63 17.2 47 8.3 56 56 NNW 8 13 30.21 1023 10 16 0.00 0.00
3:54 am 03:54 Clear 60 15.6 47 8.3 62 62 Calm 30.23 1024 10 16 0.00 0.00
4:54 am 04:54 Clear 58 14.4 47 8.3 67 67 Calm 30.24 1024 10 16 0.00 0.00
5:54 am 05:54 Clear 55 12.8 47 8.3 74 74 N 6 9 30.27 1025 10 16 0.00 0.00
6:54 am 06:54 Sunny 60 15.6 47 8.3 62 62 NNW 6 9 30.31 1026 10 16 0.00 0.00
7:54 am 07:54 Sunny 64 17.8 48 8.9 56 56 NNW 8 13 30.35 1028 10 16 0.00 0.00
8:54 am 08:54 Sunny 66 18.9 47 8.3 50 50 N 13 20 30.36 1028 10 16 0.00 0.00
9:54 am 09:54 Sunny 69 20.6 46 7.8 44 44 N 16 26 30.37 1028 10 16 0.00 0.00
10:54 am 10:54 Sunny 72 22.2 47 8.3 41 41 N 15 24 30.36 1028 10 16 0.00 0.00
11:54 am 11:54 Sunny 74 23.3 46 7.8 37 37 N 20 31 30.35 1028 10 16 0.00 0.00
12:54 pm 12:54 Sunny 77 25 46 7.8 33 33 NNW 15 24 30.33 1027 10 16 0.00 0.00
1:54 pm 13:54 Sunny 78 25.6 46 7.8 32 32 NNW 13 20 30.32 1027 10 16 0.00 0.00
2:54 pm 14:54 Sunny 79 26.1 46 7.8 31 31 N 16 26 30.29 1026 10 16 0.00 0.00
3:54 pm 15:54 Sunny 81 27.2 46 7.8 29 29 NW 20 31 30.28 1025 10 16 0.00 0.00
4:54 pm 16:54 Sunny 81 27.2 46 7.8 29 29 NW 12 19 30.27 1025 10 16 0.00 0.00
5:54 pm 17:54 Sunny 82 27.8 47 8.3 29 29 NNW 10 17 30.25 1025 10 16 0.00 0.00
6:54 pm 18:54 Sunny 81 27.2 46 7.8 29 29 NNW 9 15 30.24 1024 10 16 0.00 0.00
7:54 pm 19:54 Sunny 80 26.7 46 7.8 30 30 NNW 12 19 30.25 1024 10 16 0.00 0.00
8:54 pm 20:54 Sunny 68 20 50 10 53 53 N 6 9 30.27 1025 10 16 0.00 0.00
9:54 pm 21:54 Clear 65 18.3 49 9.4 56 56 N 5 7 30.29 1026 10 16 0.00 0.00
10:54 pm 22:54 Clear 59 15 51 10.6 75 75 NNW 3 6 30.32 1027 10 16 0.00 0.00
11:54 pm 23:54 Clear 57 13.9 51 10.6 81 81 NNW 5 7 30.32 1027 10 16 0.00 0.00

Powered by AerisWeather